TimeMST,TemperatureF,Dew PointF,Humidity,Sea Level PressureIn,VisibilityMPH,Wind Direction,Wind SpeedMPH,Gust SpeedMPH,PrecipitationIn,Events,Conditions,WindDirDegrees,DateUTC
12:36 AM,19.4,15.8,86,30.12,2.5,SW,5.8,-,N/A,,Overcast,230,2013-01-01 07:36:00
12:43 AM,19.4,15.8,86,30.12,3.0,SW,5.8,-,N/A,,Overcast,230,2013-01-01 07:43:00
12:53 AM,18.0,16.0,92,30.25,5.0,SW,5.8,-,N/A,,Overcast,230,2013-01-01 07:53:00
1:17 AM,17.6,15.8,93,30.12,4.0,SW,6.9,-,N/A,,Mostly Cloudy,230,2013-01-01 08:17:00
1:32 AM,15.8,12.2,86,30.13,7.0,SW,5.8,-,N/A,,Scattered Clouds,230,2013-01-01 08:32:00
1:53 AM,12.9,10.9,92,30.27,9.0,WSW,5.8,-,N/A,,Clear,250,2013-01-01 08:53:00
2:53 AM,10.9,9.0,92,30.27,8.0,WSW,5.8,-,N/A,,Clear,240,2013-01-01 09:53:00
3:53 AM,10.0,8.1,92,30.27,9.0,West,5.8,-,N/A,,Partly Cloudy,260,2013-01-01 10:53:00
4:53 AM,12.9,10.0,88,30.27,9.0,West,6.9,-,N/A,,Mostly Cloudy,260,2013-01-01 11:53:00
5:53 AM,8.1,6.1,92,30.28,10.0,WSW,8.1,-,N/A,,Clear,250,2013-01-01 12:53:00
6:53 AM,8.1,6.1,92,30.30,10.0,West,4.6,-,N/A,,Clear,270,2013-01-01 13:53:00
7:53 AM,8.1,5.0,87,30.31,10.0,West,11.5,-,N/A,,Clear,280,2013-01-01 14:53:00
8:53 AM,10.0,6.1,84,30.34,8.0,WNW,6.9,-,N/A,,Mostly Cloudy,290,2013-01-01 15:53:00
9:53 AM,14.0,8.1,77,30.34,9.0,West,8.1,-,N/A,,Clear,280,2013-01-01 16:53:00
10:53 AM,17.1,10.0,74,30.32,9.0,West,5.8,-,N/A,,Clear,260,2013-01-01 17:53:00
11:53 AM,21.0,10.9,65,30.28,10.0,West,9.2,-,N/A,,Clear,270,2013-01-01 18:53:00
12:53 PM,23.0,12.9,65,30.25,10.0,WNW,10.4,-,N/A,,Clear,290,2013-01-01 19:53:00
1:53 PM,25.0,14.0,63,30.25,10.0,West,6.9,-,N/A,,Clear,280,2013-01-01 20:53:00
2:53 PM,24.1,14.0,65,30.25,10.0,West,5.8,-,N/A,,Clear,270,2013-01-01 21:53:00
3:53 PM,21.0,12.9,71,30.25,10.0,West,5.8,-,N/A,,Clear,260,2013-01-01 22:53:00
4:53 PM,15.1,9.0,77,30.25,10.0,WSW,4.6,-,N/A,,Clear,240,2013-01-01 23:53:00
5:53 PM,10.9,7.0,84,30.27,10.0,WSW,6.9,-,N/A,,Clear,240,2013-01-02 00:53:00
6:53 PM,10.9,6.1,81,30.28,10.0,WSW,9.2,-,N/A,,Clear,250,2013-01-02 01:53:00
7:53 PM,12.0,7.0,80,30.26,10.0,West,10.4,-,N/A,,Clear,260,2013-01-02 02:53:00
8:53 PM,15.1,8.1,74,30.24,10.0,West,12.7,-,N/A,,Clear,270,2013-01-02 03:53:00
9:53 PM,16.0,8.1,71,30.24,10.0,West,15.0,-,N/A,,Clear,270,2013-01-02 04:53:00
10:53 PM,16.0,7.0,68,30.24,10.0,West,13.8,-,N/A,,Clear,280,2013-01-02 05:53:00
11:53 PM,19.0,10.0,68,30.21,10.0,West,12.7,-,N/A,,Overcast,270,2013-01-02 06:53:00